User: anonymous
Location: Kailua
(21.4020°N, 157.7390°W)
Time: 07:51:20
(UTC-10:00)
Language:

Cosmos 2297 Rocket - Orbit

View from above orbital plane
View from above orbital plane
View from above satellite
View from above satellite

Ground track
Ground track

The orbit data is extracted from the following two-line orbital elements,

1 23405U 94077B   14270.75077990 -.00000182  00000-0 -69006-4 0  9638
2 23405 070.9831 144.0194 0003035 337.6326 059.7551 14.15114525 24971
Epoch (UTC): 27 September 2014 18:01:07
Eccentricity: 0.0003035
inclination: 70.9831°
perigee height: 840 km
apogee height: 844 km
right ascension of ascending node: 144.0194°
argument of perigee: 337.6326°
revolutions per day: 14.15114525
mean anomaly at epoch: 59.7551°
orbit number at epoch: 2497

The dashed part of the orbit path shows where the satellite is in the earth's shadow,  

DLR